When you browse on this site, cookies collect data to enhance your experience and personalize the content and advertising you see.
Visit our Privacy Policy to learn more. By continuing to use the site, you agree to this use of cookies and data.
  • In Austria
  • List of Countries
  • For 7 days
  • Water Temperature
  • Weather Map
  • News
  • Weather Widgets
  • user-avatar
    Login

    Hourly Weather Smolan

    Today, 15 December, Sunday

    Time Temperature Precipitation Wind Pressure Humidity
    00:00 +5°C° 0 mm 1 mps 649 mmHg 93%
    01:00 +5°C° 0 mm 1 mps 649 mmHg 92%
    02:00 +5°C° 0 mm 1 mps 650 mmHg 92%
    03:00 +5°C° 0 mm 1 mps 650 mmHg 92%
    04:00 +5°C° 0 mm 1 mps 651 mmHg 91%
    05:00 +5°C° 0 mm 1 mps 651 mmHg 91%
    06:00 +4°C° 0 mm 1 mps 652 mmHg 91%
    07:00 +4°C° 0 mm 1 mps 653 mmHg 90%
    08:00 +3°C° 0 mm 2 mps 653 mmHg 91%
    09:00 +4°C° 0 mm 2 mps 654 mmHg 80%
    10:00 +7°C° 0 mm 1 mps 655 mmHg 70%
    11:00 +8°C° 0 mm 1 mps 656 mmHg 60%
    12:00 +9°C° 0 mm 1 mps 657 mmHg 55%
    13:00 +9°C° 0 mm 1 mps 657 mmHg 51%
    14:00 +10°C° 0 mm 1 mps 657 mmHg 47%
    15:00 +8°C° 0 mm 1 mps 657 mmHg 56%
    16:00 +7°C° 0 mm 1 mps 656 mmHg 65%
    17:00 +5°C° 0 mm 1 mps 656 mmHg 74%
    18:00 +5°C° 0 mm 1 mps 656 mmHg 75%
    19:00 +4°C° 0 mm 1 mps 657 mmHg 75%
    20:00 +4°C° 0 mm 1 mps 657 mmHg 75%
    21:00 +4°C° 0 mm 1 mps 657 mmHg 73%
    22:00 +4°C° 0 mm 1 mps 657 mmHg 71%
    23:00 +4°C° 0 mm 1 mps 658 mmHg 69%

    Tomorrow, 16 December, Monday

    Time Temperature Precipitation Wind Pressure Humidity
    00:00 +3°C° 0 mm 1 mps 658 mmHg 69%
    01:00 +3°C° 0 mm 1 mps 658 mmHg 70%
    02:00 +3°C° 0 mm 1 mps 658 mmHg 71%
    03:00 +3°C° 0 mm 1 mps 658 mmHg 71%
    04:00 +3°C° 0 mm 1 mps 658 mmHg 71%
    05:00 +3°C° 0 mm 1 mps 658 mmHg 71%
    06:00 +3°C° 0 mm 1 mps 658 mmHg 70%
    07:00 +3°C° 0 mm 1 mps 658 mmHg 69%
    08:00 +3°C° 0 mm 1 mps 658 mmHg 68%
    09:00 +5°C° 0 mm 1 mps 659 mmHg 65%
    10:00 +7°C° 0 mm 1 mps 660 mmHg 62%
    11:00 +10°C° 0 mm 1 mps 661 mmHg 59%
    12:00 +10°C° 0 mm 1 mps 660 mmHg 58%
    13:00 +11°C° 0 mm 1 mps 660 mmHg 58%
    14:00 +11°C° 0 mm 1 mps 660 mmHg 57%
    15:00 +9°C° 0 mm 1 mps 659 mmHg 65%
    16:00 +8°C° 0 mm 1 mps 659 mmHg 72%
    17:00 +6°C° 0 mm 1 mps 658 mmHg 79%
    18:00 +6°C° 0 mm 1 mps 658 mmHg 75%
    19:00 +6°C° 0 mm 1 mps 658 mmHg 70%
    20:00 +5°C° 0 mm 1 mps 658 mmHg 65%
    21:00 +5°C° 0 mm 1 mps 658 mmHg 62%
    22:00 +5°C° 0 mm 1 mps 658 mmHg 59%
    23:00 +5°C° 0 mm 1 mps 658 mmHg 56%

    Day after tomorrow, 17 December, Tuesday

    Time Temperature Precipitation Wind Pressure Humidity
    00:00 +5°C° 0 mm 1 mps 658 mmHg 55%
    01:00 +5°C° 0 mm 1 mps 658 mmHg 53%
    02:00 +5°C° 0 mm 1 mps 658 mmHg 52%
    03:00 +5°C° 0 mm 1 mps 658 mmHg 51%
    04:00 +5°C° 0 mm 1 mps 658 mmHg 50%
    05:00 +5°C° 0 mm 1 mps 657 mmHg 48%
    06:00 +5°C° 0 mm 1 mps 658 mmHg 48%
    07:00 +5°C° 0 mm 1 mps 658 mmHg 47%
    08:00 +5°C° 0 mm 1 mps 658 mmHg 46%
    09:00 +7°C° 0 mm 1 mps 659 mmHg 45%
    10:00 +9°C° 0 mm 1 mps 660 mmHg 45%
    11:00 +12°C° 0 mm 1 mps 661 mmHg 44%
    12:00 +12°C° 0 mm 1 mps 660 mmHg 45%
    13:00 +13°C° 0 mm 1 mps 660 mmHg 46%
    14:00 +13°C° 0 mm 1 mps 660 mmHg 47%
    15:00 +11°C° 0 mm 1 mps 659 mmHg 53%
    16:00 +10°C° 0 mm 1 mps 659 mmHg 59%
    17:00 +8°C° 0 mm 1 mps 658 mmHg 65%
    18:00 +8°C° 0 mm 1 mps 658 mmHg 60%
    19:00 +7°C° 0 mm 1 mps 658 mmHg 56%
    20:00 +7°C° 0 mm 1 mps 659 mmHg 52%
    21:00 +7°C° 0 mm 1 mps 659 mmHg 50%
    22:00 +7°C° 0 mm 1 mps 659 mmHg 47%
    23:00 +7°C° 0 mm 1 mps 659 mmHg 45%

    18 December, Wednesday

    Time Temperature Precipitation Wind Pressure Humidity
    00:00 +7°C° 0 mm 1 mps 659 mmHg 45%
    01:00 +6°C° 0 mm 1 mps 659 mmHg 45%
    02:00 +6°C° 0 mm 1 mps 658 mmHg 45%
    03:00 +6°C° 0 mm 1 mps 658 mmHg 45%
    04:00 +6°C° 0 mm 1 mps 658 mmHg 45%
    05:00 +6°C° 0 mm 1 mps 658 mmHg 46%
    06:00 +6°C° 0 mm 1 mps 658 mmHg 46%
    07:00 +6°C° 0 mm 1 mps 658 mmHg 46%
    08:00 +6°C° 0 mm 1 mps 658 mmHg 46%
    09:00 +8°C° 0 mm 1 mps 659 mmHg 46%
    10:00 +10°C° 0 mm 1 mps 660 mmHg 46%
    11:00 +12°C° 0 mm 1 mps 661 mmHg 46%
    12:00 +12°C° 0 mm 1 mps 660 mmHg 47%
    13:00 +13°C° 0 mm 2 mps 660 mmHg 48%
    14:00 +13°C° 0 mm 2 mps 660 mmHg 49%
    15:00 +10°C° 0 mm 2 mps 659 mmHg 55%
    16:00 +9°C° 0 mm 1 mps 659 mmHg 61%
    17:00 +7°C° 0 mm 1 mps 658 mmHg 67%
    18:00 +7°C° 0 mm 1 mps 658 mmHg 65%
    19:00 +7°C° 0 mm 1 mps 658 mmHg 62%
    20:00 +6°C° 0 mm 1 mps 658 mmHg 60%
    21:00 +6°C° 0 mm 1 mps 658 mmHg 60%
    22:00 +6°C° 0 mm 1 mps 658 mmHg 59%
    23:00 +5°C° 0 mm 2 mps 658 mmHg 58%

    19 December, Thursday

    Time Temperature Precipitation Wind Pressure Humidity
    00:00 +6°C° 0 mm 1 mps 658 mmHg 58%
    01:00 +6°C° 0 mm 1 mps 658 mmHg 58%
    02:00 +6°C° 0 mm 1 mps 658 mmHg 57%
    03:00 +6°C° 0 mm 1 mps 657 mmHg 57%
    04:00 +6°C° 0 mm 1 mps 657 mmHg 58%
    05:00 +5°C° 0 mm 1 mps 657 mmHg 58%
    06:00 +5°C° 0 mm 1 mps 657 mmHg 60%
    07:00 +5°C° 0 mm 1 mps 657 mmHg 62%
    08:00 +5°C° 0 mm 1 mps 657 mmHg 63%
    09:00 +6°C° 0 mm 2 mps 657 mmHg 65%
    10:00 +7°C° 0 mm 2 mps 658 mmHg 66%
    11:00 +8°C° 0 mm 2 mps 658 mmHg 67%
    12:00 +8°C° 0 mm 2 mps 658 mmHg 68%
    13:00 +9°C° 0 mm 2 mps 657 mmHg 69%
    14:00 +9°C° 0 mm 2 mps 657 mmHg 70%
    15:00 +8°C° 0 mm 2 mps 656 mmHg 77%
    16:00 +7°C° 0 mm 2 mps 656 mmHg 84%
    17:00 +5°C° 0 mm 2 mps 655 mmHg 91%
    18:00 +5°C° 0 mm 2 mps 655 mmHg 91%
    19:00 +5°C° 0 mm 2 mps 655 mmHg 91%
    20:00 +6°C° 0 mm 1 mps 655 mmHg 92%
    21:00 +5°C° 0 mm 1 mps 655 mmHg 93%
    22:00 +5°C° 0 mm 1 mps 654 mmHg 93%
    23:00 +5°C° 0 mm 1 mps 654 mmHg 94%

    20 December, Friday

    Time Temperature Precipitation Wind Pressure Humidity
    00:00 +5°C° 0 mm 1 mps 654 mmHg 94%
    01:00 +5°C° 0 mm 1 mps 654 mmHg 94%
    02:00 +5°C° 0 mm 1 mps 653 mmHg 94%
    03:00 +5°C° 0 mm 1 mps 653 mmHg 94%
    04:00 +4°C° 0 mm 1 mps 653 mmHg 93%
    05:00 +3°C° 0 mm 2 mps 653 mmHg 93%
    06:00 +3°C° 0 mm 2 mps 653 mmHg 93%
    07:00 +3°C° 0 mm 2 mps 653 mmHg 93%
    08:00 +3°C° 0 mm 2 mps 653 mmHg 93%
    09:00 +4°C° 0 mm 2 mps 653 mmHg 86%
    10:00 +6°C° 0 mm 2 mps 654 mmHg 79%
    11:00 +7°C° 0 mm 2 mps 654 mmHg 71%
    12:00 +7°C° 0 mm 2 mps 654 mmHg 71%
    13:00 +8°C° 0 mm 2 mps 654 mmHg 71%
    14:00 +8°C° 0 mm 3 mps 653 mmHg 71%
    15:00 +7°C° 0 mm 2 mps 653 mmHg 76%
    16:00 +6°C° 0 mm 2 mps 653 mmHg 82%
    17:00 +6°C° 0 mm 1 mps 652 mmHg 88%
    18:00 +6°C° 0 mm 1 mps 652 mmHg 88%
    19:00 +5°C° 0 mm 1 mps 652 mmHg 89%
    20:00 +5°C° 0 mm 1 mps 652 mmHg 90%
    21:00 +5°C° 0 mm 1 mps 652 mmHg 89%
    22:00 +5°C° 0 mm 1 mps 652 mmHg 89%
    23:00 +5°C° 0 mm 1 mps 652 mmHg 88%
    Show more